Station SLXA2 - Salmon Landing, AK Image indicating link to RSS feed of recent meteorological observations for station SLXA2


Conditions at SLXA2 as of
(10:13 pm AKDT on 05/20/2024)
0613 GMT on 05/21/2024:
     

Click on the graph icon in the table below to see a time series plot of the last five days of that observation.

5-day plot - Wind Direction Wind Direction (WDIR):NNE ( 20 deg true )
5-day plot - Wind Speed Wind Speed (WSPD): 3 kts
5-day plot - Wind Gust Wind Gust (GST): 6 kts
5-day plot - Atmospheric Pressure Atmospheric Pressure (PRES):30.00 in
5-day plot - Air Temperature Air Temperature (ATMP): 44.8 °F
5-day plot - Dew Point Dew Point (DEWP): 39.9 °F
5-day plot - Wind Chill Wind Chill (CHILL): 43.3 °F
5-day plot - Wind Speed at 10 Meters Wind Speed at 10 meters (WSPD10M): 2 kts
5-day plot - Wind Speed at 20 Meters Wind Speed at 20 meters (WSPD20M): 4 kts
5-day plot -  Wind Speed, Wind Gust and Atmospheric Pressure Combined plot of Wind Speed, Gust, and Air Pressure
Previous observations
TIME
(AKDT)
5-day plot - Wind Direction
WDIR
 
5-day plot - Wind Speed
WSPD
kts
5-day plot - Wind Gust
GST
kts
5-day plot - Wave Height
WVHT
ft
5-day plot - Dominant Wave Period
DPD
sec
5-day plot - Average Wave Period
APD
sec
5-day plot - Mean Wave Direction
MWD
 
5-day plot - Atmospheric Pressure
PRES
in
5-day plot - Pressure Tendency
PTDY
in
5-day plot - Air Temperature
ATMP
°F
5-day plot - Water Temperature
WTMP
°F
5-day plot - Dew Point
DEWP
°F
5-day plot - Salinity
SAL
psu
5-day plot - Visibility
VIS
nmi
5-day plot - Tide (above MLLW)
TIDE
ft
2024-05-20 10:03 pmENE 4 8----30.01- 44.4- 39.7---
2024-05-20 09:53 pmENE 3 6----30.01- 44.8- 39.7---
2024-05-20 09:43 pm NE 3 5----30.01- 45.5- 39.4---
2024-05-20 09:33 pmWNW 5 8----30.01- 45.7- 38.7---
2024-05-20 09:23 pmWNW 4 10----30.01- 46.9- 39.7---
2024-05-20 09:13 pmENE 3 7----30.01- 47.3- 40.1---
2024-05-20 09:03 pmNNE 3 6----30.01- 48.0- 40.1---
2024-05-20 08:53 pm N 3 5----30.00- 48.2- 39.6---
2024-05-20 08:43 pm W 4 7----30.00- 47.8- 39.7---
2024-05-20 08:33 pmSSW 3 5----30.00- 47.8- 39.7---
2024-05-20 08:23 pm S 3 6----30.00- 47.8- 39.7---
2024-05-20 08:13 pm SE 5 8----30.00- 47.8- 40.1---
2024-05-20 08:03 pmESE 5 9----30.00- 47.8- 39.9---
2024-05-20 07:53 pmESE 5 9----30.01- 48.0- 39.9---
2024-05-20 07:43 pmESE 5 8----30.01- 48.2- 39.7---
2024-05-20 07:33 pm S 4 6----30.01- 48.7- 39.0---
2024-05-20 07:23 pm W 3 5----30.01- 49.5- 39.0---
2024-05-20 07:13 pmWSW 3 6----30.01- 50.0- 39.2---
2024-05-20 07:03 pm NW 3 7----30.01- 50.9- 39.7---
2024-05-20 06:53 pmWNW 1 4----30.02- 53.6- 42.1---
2024-05-20 06:43 pm W 2 4----30.02- 50.4- 40.1---
2024-05-20 06:33 pm W 3 6----30.01- 48.7- 39.6---
2024-05-20 06:23 pm W 4 6----30.01- 48.4- 39.0---
2024-05-20 06:13 pmSSE 3 13----30.02- 49.1- 39.6---
2024-05-20 06:03 pm SE 7 10----30.01- 48.4- 38.8---
2024-05-20 05:53 pmSSE 6 9----30.02- 48.6- 38.3---
2024-05-20 05:43 pm SE 6 11----30.02- 48.7- 37.9---
2024-05-20 05:33 pm SE 7 14----30.02- 48.7- 38.3---
2024-05-20 05:23 pm SE 7 12----30.02- 48.7- 39.0---
2024-05-20 05:13 pmSSE 8 12----30.02- 48.6- 38.5---
2024-05-20 05:03 pmSSE 9 14----30.02- 48.6- 38.5---
2024-05-20 04:53 pmSSE 9 13----30.02- 48.6- 38.5---
2024-05-20 04:43 pmSSE 9 13----30.03- 48.4- 38.7---
2024-05-20 04:33 pm SE 8 14----30.03- 48.4- 38.8---
2024-05-20 04:23 pmSSE 9 14----30.03- 48.4- 38.8---
2024-05-20 04:13 pmSSE 10 14----30.03- 48.6- 38.5---
2024-05-20 03:53 pm SE 9 14----30.03- 48.4- 37.9---
2024-05-20 03:43 pm SE 9 14----30.03- 48.4- 37.8---
2024-05-20 03:33 pmSSE 10 13----30.03- 48.6- 37.8---
2024-05-20 03:23 pmSSE 11 15----30.03- 48.6- 38.1---
2024-05-20 03:13 pmSSE 10 14----30.03- 48.6- 38.1---
2024-05-20 03:03 pmSSE 8 14----30.04- 48.6- 38.3---
2024-05-20 02:53 pmESE 6 9----30.04- 48.4- 38.5---
2024-05-20 02:43 pmESE 5 8----30.04- 48.2- 38.1---
2024-05-20 02:33 pmESE 7 11----30.03- 48.2- 38.3---
2024-05-20 02:23 pmESE 5 7----30.04- 48.4- 37.8---
2024-05-20 02:13 pmESE 4 8----30.04- 48.4- 37.8---
2024-05-20 02:03 pm SE 6 10----30.04- 48.0- 38.3---
2024-05-20 01:53 pm SE 7 11----30.05- 47.8- 37.9---
2024-05-20 01:43 pm SE 6 13----30.05- 48.6- 37.9---
2024-05-20 01:33 pm SE 3 6----30.05- 49.1- 38.1---
2024-05-20 01:23 pm SE 5 10----30.05- 49.1- 38.1---
2024-05-20 01:13 pmESE 2 8----30.05- 50.7- 38.5---
2024-05-20 01:03 pm N 2 5----30.05- 50.9- 38.5---
2024-05-20 12:53 pm NE 2 4----30.06- 50.5- 38.8---
2024-05-20 12:43 pmNNE 2 8----30.05- 49.6- 38.5---
2024-05-20 12:33 pmNNW 6 13----30.05- 48.6- 37.6---
2024-05-20 12:23 pmNNW 3 7----30.05- 49.3- 38.1---
2024-05-20 12:13 pmNNW 4 8----30.05- 49.3- 38.1---
2024-05-20 12:03 pmNNW 4 9----30.05- 49.5- 38.3---
2024-05-20 11:53 amENE 2 4----30.05- 49.5- 39.0---
2024-05-20 11:43 am E 3 6----30.05- 49.1- 38.8---
2024-05-20 11:33 am E 2 5----30.05- 49.5- 39.0---
2024-05-20 11:23 am E 3 5----30.05- 49.3- 38.7---
2024-05-20 11:13 amNNE 2 6----30.05- 49.6- 38.8---
2024-05-20 11:03 amNNE 3 7----30.05- 49.6- 39.0---
2024-05-20 10:53 am N 2 7----30.05- 49.6- 39.2---
2024-05-20 10:43 am N 3 9----30.05- 49.3- 39.0---
2024-05-20 10:33 am N 4 11----30.05- 48.9- 39.2---
2024-05-20 10:23 am N 4 9----30.05- 48.4- 39.2---
2024-05-20 10:13 am N 5 11----30.05- 47.7- 38.7---
2024-05-20 10:03 am N 6 11----30.05- 47.5- 39.2---
2024-05-20 09:53 amNNW 7 15----30.04- 47.5- 39.6---
2024-05-20 09:43 amESE 6 13----30.04- 47.8- 41.4---
2024-05-20 09:33 am SE 7 11----30.04- 47.5- 41.4---
2024-05-20 09:23 am SE 9 16----30.04- 47.3- 41.2---
2024-05-20 09:13 am SE 10 16----30.03- 47.5- 41.5---
2024-05-20 09:03 am SE 11 16----30.03- 47.5- 41.5---
2024-05-20 08:53 amESE 11 18----30.03- 47.5- 41.5---
2024-05-20 08:43 am SE 10 15----30.03- 47.7- 41.9---
2024-05-20 08:33 amSSE 9 14----30.03- 47.7- 41.7---
2024-05-20 08:23 amSSE 9 14----30.03- 47.5- 42.3---
2024-05-20 08:13 amSSE 10 14----30.03- 47.7- 42.6---
2024-05-20 08:03 amSSE 10 14----30.03- 47.8- 43.2---
2024-05-20 07:53 amSSE 8 12----30.03- 48.2- 44.1---
2024-05-20 07:43 am SE 6 9----30.03- 48.2- 44.6---
2024-05-20 07:33 am SE 7 10----30.03- 48.2- 44.6---
2024-05-20 07:23 amSSE 7 10----30.03- 48.2- 44.8---
2024-05-20 07:13 am SE 7 11----30.03- 48.0- 44.6---
2024-05-20 07:03 am SE 7 12----30.03- 47.8- 44.4---
2024-05-20 06:53 am SE 7 12----30.04- 47.7- 44.4---
2024-05-20 06:43 am SE 7 10----30.03- 47.7- 44.2---
2024-05-20 06:33 am S 8 10----30.03- 47.7- 44.2---
2024-05-20 06:23 am S 8 11----30.03- 47.7- 44.4---
2024-05-20 06:13 amSSE 9 15----30.03- 47.7- 44.6---
2024-05-20 06:03 am SE 10 16----30.03- 47.7- 44.6---
2024-05-20 05:53 amSSE 10 15----30.04- 47.5- 44.4---
2024-05-20 05:43 am SE 9 15----30.04- 47.5- 44.4---
2024-05-20 05:33 amSSE 10 16----30.04- 47.3- 44.2---
2024-05-20 05:23 am S 11 15----30.04- 47.3- 44.2---
2024-05-20 05:13 amSSE 11 16----30.04- 47.1- 44.1---
2024-05-20 05:03 amSSE 11 20----30.04- 47.1- 44.1---
2024-05-20 04:53 am SE 12 17----30.05- 47.1- 44.1---
2024-05-20 04:43 amSSE 12 18----30.05- 46.9- 44.1---
2024-05-20 04:33 amSSE 11 18----30.05- 46.8- 44.1---
2024-05-20 04:23 am SE 8 12----30.05- 46.4- 43.7---
2024-05-20 04:13 amSSE 8 14----30.05- 46.2- 43.5---
2024-05-20 04:03 amSSE 8 11----30.06- 46.2- 43.5---
2024-05-20 03:53 amSSE 9 13----30.06- 46.2- 43.5---
2024-05-20 03:43 amSSE 9 14----30.06- 46.2- 43.5---
2024-05-20 03:33 amSSE 10 14----30.06- 46.2- 43.3---
2024-05-20 03:23 amSSE 10 15----30.06- 46.2- 43.2---
2024-05-20 03:13 amSSE 10 17----30.07- 46.2- 43.2---
2024-05-20 03:03 amSSE 10 18----30.07- 46.2- 43.5---
2024-05-20 02:53 am SE 8 12----30.07- 46.2- 43.5---
2024-05-20 02:43 amSSE 7 13----30.08- 46.0- 43.3---
2024-05-20 02:33 am SE 9 15----30.08- 46.0- 43.5---
2024-05-20 02:23 am SE 10 14----30.08- 46.0- 43.5---
2024-05-20 02:13 am SE 10 13----30.08- 45.9- 43.3---
2024-05-20 02:03 am SE 7 13----30.09- 45.9- 43.2---
2024-05-20 01:53 am E 2 4----30.09- 45.5- 42.8---
2024-05-20 01:43 am E 3 5----30.09- 45.1- 42.4---
2024-05-20 01:33 am E 4 6----30.09- 45.0- 42.3---
2024-05-20 01:23 amESE 9 14----30.09- 45.7- 43.0---
2024-05-20 01:03 am SE 11 16----30.10- 45.5- 42.8---
2024-05-20 12:53 am SE 11 16----30.10- 45.5- 42.4---
2024-05-20 12:43 am SE 12 17----30.10- 45.5- 42.4---
2024-05-20 12:33 am SE 13 18----30.11- 45.5- 42.3---
2024-05-20 12:23 am SE 12 15----30.11- 45.5- 42.1---
2024-05-20 12:13 amSSE 12 17----30.11- 45.1- 41.5---
2024-05-20 12:03 amSSE 12 17----30.11- 45.1- 41.7---
2024-05-19 11:53 pmSSE 12 18----30.11- 45.1- 41.7---
2024-05-19 11:43 pmSSE 12 17----30.12- 45.0- 41.5---
2024-05-19 11:33 pmSSE 13 16----30.13- 44.6- 41.2---
2024-05-19 11:23 pm SE 12 17----30.13- 44.8- 41.4---
2024-05-19 11:13 pm SE 13 17----30.13- 44.6- 41.2---
2024-05-19 11:03 pmSSE 12 15----30.14- 44.6- 40.8---
2024-05-19 10:53 pm SE 11 16----30.14- 44.8- 40.6---
2024-05-19 10:43 pm SE 9 15----30.14- 45.0- 40.5---
2024-05-19 10:33 pm SE 11 16----30.14- 45.0- 40.3---
2024-05-19 10:23 pm S 9 15----30.14- 44.4- 40.3---
2024-05-19 10:13 pmSSW 8 12----30.15- 44.6- 40.6---
2024-05-19 10:03 pmSSW 9 14----30.15- 44.6- 40.6---
2024-05-19 09:53 pmSSW 10 13----30.15- 44.8- 40.6---